Hourly Weather Roundup
Issued by NWS Central Illinois

Home | Current Version | Previous Version | Text Only | Print | Product List | Glossary On
Versions: 1 2 3 4 5 6 7 8 9 10 11 12 13 14 15 16 17 18 19 20 21 22 23 24 25 26 27 28 29 30 31 32 33 34 35 36 37 38 39 40 41 42 43 44 45 46 47 48 49 50
000
NZUS43 KILX 201910
HWRILX

AREA WEATHER ROUNDUP
NATIONAL WEATHER SERVICE, LINCOLN IL
200 PM CDT SAT SEP 20 2014


CITY           SKY/WX    TMP DP  RH WIND       PRES   REMARKS
BLOOMINGTON    PTSUNNY   82  69  64 SW21G26   29.90S HX  85
CHAMPAIGN      MOSUNNY   83  66  56 SW20G25   29.90F HX  85
DECATUR        MOSUNNY   83  68  60 SW18      29.91F HX  86
FLORA          PTSUNNY   83  67  58 SW16      29.97F HX  86
GALESBURG      PTSUNNY   83  70  65 W17       29.89F HX  87
JACKSONVILLE   CLOUDY    84  70  62 SW14G20   29.92F HX  88
LACON          PTSUNNY   79  66  64 W10       29.88S HX  81
LAWRENCEVILLE  PTSUNNY   85  67  54 SW16      29.97F HX  87
LITCHFIELD     MOSUNNY   82  69  66 SW13      29.95F HX  85
$$


CITY           SKY/WX    TMP DP  RH WIND       PRES   REMARKS
LINCOLN        PTSUNNY   84  68  58 W13G24    29.88R HX  87
MACOMB         CLOUDY    78  67  70 W12G20    29.94R HX  80
MATTOON        MOSUNNY   79  67  66 S15G22    29.94F HX  81
MT CARMEL AP   PTSUNNY   88  64  45 W13G21    29.97F HX  89
OLNEY-NOBLE AP MOSUNNY   82  68  61 SW6       29.97F HX  85
PARIS          PTSUNNY   83  67  58 SW15G26   29.94F HX  86
PEORIA         CLOUDY    79  68  69 W7        29.90S HX  81
PONTIAC        MOSUNNY   82  68  61 SW15G24   29.88R HX  85
RANTOUL        PTSUNNY   85  63  47 SW16G22   29.90F HX  86
ROBINSON       PTSUNNY   85  69  60 SW16      29.97F HX  89
SPRINGFIELD    CLOUDY    83  69  62 SW14G20   29.92S HX  86
TAYLORVILLE    MOSUNNY   82  68  61 SW15G22   29.92F HX  85
$$

...REGIONAL REPORTS...


CITY           SKY/WX    TMP DP  RH WIND       PRES   REMARKS
CHICAGO O`HARE LGT RAIN  72  69  90 W13G22    29.85S
KANKAKEE       PTSUNNY   81  68  65 SW16G26   29.86F HX  83
MOLINE         CLOUDY    76  68  76 W7        29.87F
MOUNT VERNON   PTSUNNY   82  70  65 S12       29.99F HX  86
PITTSFIELD     CLOUDY    81  69  67 SW9G16    29.93F HX  84
QUINCY         CLOUDY    80  69  69 W9G20     29.94R HX  83
ROCKFORD       CLOUDY    76  64  66 SW14      29.84F
$$


CITY           SKY/WX    TMP DP  RH WIND       PRES   REMARKS
BURLINGTON     MOSUNNY   79  69  71 W12       29.90S HX  81
CEDAR RAPIDS   CLOUDY    73  70  90 SW8       29.83F
DES MOINES     MOSUNNY   82  65  56 W13       29.87R HX  84
KIRKSVILLE     CLOUDY    77  69  76 W13       29.95F
OTTUMWA        PTSUNNY   79  68  69 SW13      29.88F HX  81
ST LOUIS       CLOUDY    85  69  58 SW13      29.97F HX  89
$$


CITY           SKY/WX    TMP DP  RH WIND       PRES   REMARKS
TERRE HAUTE    PTSUNNY   80  66  62 SW15      29.96F HX  82
EVANSVILLE     PTSUNNY   85  64  49 SW15      30.01F HX  86
INDIANAPOLIS   CLOUDY    77  64  64 SW14      29.97
LAFAYETTE      PTSUNNY   79  64  60 S14G25    29.90F HX  81
MADISON        LGT RAIN  72  64  76 SW6       29.78F
MILWAUKEE      PTSUNNY   78  61  55 SW16G23   29.78S HX  80
$$




USA.gov is the U.S. government's official web portal to all federal, state and local government web resources and services.